Location: ?????
(31.8092°N, 35.2590°E)
Time: 17:19:34
(UTC+00:00)

SL-16 R/B - Pass Details

Date: 20 June 2021
Orbit: 842 x 847 km, 71.0° (Epoch: 03 August)

Event Time Altitude Azimuth Distance (km) Brightness Sun altitude
Exits shadow 20:42:24 34° 40° (NE) 1,348 3.4 -33.0°
Drops below altitude 10° 20:45:38 10° 27° (NNE) 2,466 5.1 -33.2°
Sets 20:48:06 0° 25° (NNE) 3,403 6.0 -33.3°
